Retour au catalogue

COSMOS 1275 DEB

ActifPO
NORAD 39958·DEBRIS·🇷🇺 Russia

Lancé Jun 4, 1981 depuis Plesetsk Cosmodrome

Loading…

Prochains Passages (prochaines 24 heures)

TLE

PériméSource: Space-Track

Époque: Aug 29, 2026, 12:18 UTC

1 39958U 81053NU  26241.51299343  .00000550  00000-0  54973-3 0  9993
2 39958  83.0306 160.3940 0085747 253.3340 285.5481 13.74713616612797

Suivez COSMOS 1275 DEB en temps réel avec AllMySat

Download on the App Store